LGX43B LIPZ-LIRA

Flight info

Callsign LGX43B
Flight time N/A
Altitude 33000
Route CHI DCT PIDEP DCT DIPVO DCT NIKMA DCT GITOD
Aircraft A20N/M-SDE2FGHIJ1RWXY/HB1

Departure

Time N/A
Airport Venice Marco Polo Airport (LIPZ)

Arrival

Time 2026-05-04 22:23
Airport Ciampino–G. B. Pastine International Airport (LIRA)
Time Latitude Longitude Altitude Speed Heading
2026-05-04 22:01 42.92464 12.25006 23807 ft 399 kts 163°
2026-05-04 22:02 42.91840 12.25315 23774 ft 396 kts 163°
2026-05-04 22:02 42.90924 12.25769 23726 ft 391 kts 163°
2026-05-04 22:02 42.88273 12.27071 23497 ft 380 kts 163°
2026-05-04 22:02 42.85695 12.28329 23242 ft 370 kts 163°
2026-05-04 22:03 42.83303 12.29496 23065 ft 360 kts 163°
2026-05-04 22:03 42.80911 12.30759 22929 ft 349 kts 160°
2026-05-04 22:03 42.78676 12.32212 22678 ft 345 kts 155°
2026-05-04 22:03 42.76487 12.33896 22208 ft 346 kts 153°
2026-05-04 22:04 42.74374 12.35586 21771 ft 346 kts 153°
2026-05-04 22:04 42.72218 12.37314 21304 ft 346 kts 152°
2026-05-04 22:04 42.70168 12.38956 20871 ft 346 kts 152°
2026-05-04 22:04 42.68107 12.40605 20457 ft 345 kts 152°
2026-05-04 22:05 42.66020 12.42271 20049 ft 343 kts 152°
2026-05-04 22:05 42.63840 12.44008 19627 ft 341 kts 152°
2026-05-04 22:05 42.61718 12.45697 19218 ft 339 kts 152°
2026-05-04 22:05 42.59568 12.47407 18806 ft 337 kts 152°
2026-05-04 22:06 42.57472 12.49072 18407 ft 335 kts 152°
2026-05-04 22:06 42.55386 12.50728 18010 ft 333 kts 152°
2026-05-04 22:06 42.53282 12.52396 17617 ft 331 kts 152°
2026-05-04 22:06 42.51281 12.53982 17250 ft 328 kts 152°
2026-05-04 22:07 42.49256 12.55585 16885 ft 323 kts 152°
2026-05-04 22:07 42.47290 12.57143 16534 ft 312 kts 152°
2026-05-04 22:07 42.45386 12.58648 16175 ft 310 kts 152°
2026-05-04 22:07 42.43481 12.60151 15825 ft 309 kts 152°
2026-05-04 22:08 42.41579 12.61647 15473 ft 307 kts 154°
2026-05-04 22:08 42.39589 12.62665 15101 ft 301 kts 172°
2026-05-04 22:08 42.37538 12.62734 14757 ft 296 kts 188°
2026-05-04 22:08 42.35502 12.62313 14416 ft 293 kts 191°
2026-05-04 22:09 42.33436 12.61821 14061 ft 292 kts 191°
2026-05-04 22:09 42.31472 12.61363 13725 ft 291 kts 191°
2026-05-04 22:09 42.29380 12.60892 13374 ft 289 kts 191°
2026-05-04 22:09 42.27396 12.60455 13219 ft 282 kts 191°
2026-05-04 22:10 42.25452 12.59976 13172 ft 270 kts 194°
2026-05-04 22:10 42.23614 12.59285 12963 ft 271 kts 200°
2026-05-04 22:10 42.21790 12.58403 12566 ft 271 kts 202°
2026-05-04 22:10 42.20017 12.57513 12205 ft 271 kts 202°
2026-05-04 22:11 42.18140 12.56572 11862 ft 268 kts 201°
2026-05-04 22:11 42.16251 12.55630 11535 ft 266 kts 201°
2026-05-04 22:11 42.14445 12.54734 11226 ft 263 kts 201°
2026-05-04 22:11 42.12608 12.53825 10990 ft 256 kts 201°
2026-05-04 22:12 42.10976 12.53021 10919 ft 244 kts 201°
2026-05-04 22:12 42.09239 12.52164 10777 ft 241 kts 201°
2026-05-04 22:12 42.07537 12.51322 10448 ft 240 kts 201°
2026-05-04 22:12 42.05982 12.50554 10166 ft 237 kts 201°
2026-05-04 22:13 42.04443 12.49794 9897 ft 235 kts 200°
2026-05-04 22:13 42.02906 12.49036 9626 ft 234 kts 200°
2026-05-04 22:13 42.01368 12.48279 9357 ft 233 kts 200°
2026-05-04 22:13 41.99858 12.47536 9094 ft 232 kts 200°
2026-05-04 22:14 41.98294 12.47116 8786 ft 233 kts 175°
2026-05-04 22:14 41.96746 12.47775 8522 ft 234 kts 155°
2026-05-04 22:14 41.95300 12.48788 8259 ft 233 kts 154°
2026-05-04 22:14 41.93909 12.49873 8078 ft 235 kts 142°
2026-05-04 22:15 41.93002 12.51674 7804 ft 240 kts 107°
2026-05-04 22:15 41.92951 12.53914 7537 ft 245 kts 76°
2026-05-04 22:15 41.93770 12.55909 7259 ft 248 kts 44°
2026-05-04 22:15 41.95258 12.57057 6976 ft 248 kts 11°
2026-05-04 22:16 41.96991 12.56979 6691 ft 245 kts 338°
2026-05-04 22:16 41.98647 12.55921 6402 ft 243 kts 328°
2026-05-04 22:16 42.00218 12.54742 6096 ft 241 kts 328°
2026-05-04 22:16 42.01785 12.53590 5787 ft 239 kts 329°
2026-05-04 22:17 42.03308 12.52352 5462 ft 235 kts 313°
2026-05-04 22:17 42.04181 12.50563 5087 ft 230 kts 281°
2026-05-04 22:17 42.04229 12.48447 4584 ft 229 kts 249°
2026-05-04 22:17 42.03425 12.46664 4091 ft 229 kts 218°
2026-05-04 22:18 42.01996 12.45763 3653 ft 229 kts 185°
2026-05-04 22:18 42.00442 12.45824 3429 ft 223 kts 170°
2026-05-04 22:18 41.98973 12.46391 3292 ft 214 kts 159°
2026-05-04 22:18 41.97652 12.47215 3155 ft 206 kts 154°
2026-05-04 22:19 41.96427 12.48086 3120 ft 194 kts 153°
2026-05-04 22:19 41.95229 12.48940 3094 ft 193 kts 154°
2026-05-04 22:19 41.94053 12.49762 3057 ft 193 kts 154°
2026-05-04 22:19 41.92849 12.50593 2999 ft 193 kts 154°
2026-05-04 22:20 41.91698 12.51384 2873 ft 180 kts 155°
2026-05-04 22:20 41.90562 12.52165 2616 ft 167 kts 155°
2026-05-04 22:20 41.89505 12.52892 2356 ft 153 kts 155°
2026-05-04 22:20 41.88518 12.53570 2099 ft 140 kts 155°
2026-05-04 22:21 41.87620 12.54187 1899 ft 138 kts 155°
2026-05-04 22:21 41.86784 12.54761 1730 ft 137 kts 155°
2026-05-04 22:21 41.85931 12.55349 1556 ft 137 kts 155°
2026-05-04 22:21 41.85087 12.55932 1384 ft 137 kts 155°
2026-05-04 22:22 41.84211 12.56536 1201 ft 136 kts 154°
2026-05-04 22:22 41.83290 12.57170 998 ft 136 kts 154°
2026-05-04 22:22 41.82397 12.57786 802 ft 136 kts 153°
2026-05-04 22:22 41.81488 12.58412 605 ft 135 kts 153°
2026-05-04 22:23 41.80619 12.59011 438 ft 129 kts 152°
2026-05-04 22:23 41.79950 12.59473 430 ft 71 kts 152°
2026-05-04 22:23 41.79772 12.59596 430 ft 0 kts 152°
2026-05-04 22:23 41.79755 12.59608 430 ft 10 kts 152°
2026-05-04 22:24 41.79668 12.59635 430 ft 12 kts 211°
2026-05-04 22:24 41.79646 12.59610 430 ft 0 kts 233°
2026-05-04 22:24 41.79645 12.59608 430 ft 0 kts 233°
2026-05-04 22:25 41.79640 12.59597 430 ft 4 kts 238°
2026-05-04 22:25 41.79628 12.59521 430 ft 9 kts 287°
2026-05-04 22:25 41.79679 12.59458 430 ft 10 kts 332°
2026-05-04 22:25 41.79745 12.59412 430 ft 11 kts 332°
2026-05-04 22:26 41.79798 12.59346 430 ft 11 kts 266°
2026-05-04 22:26 41.79783 12.59302 430 ft 4 kts 257°
2026-05-04 22:26 41.79787 12.59262 430 ft 0 kts 299°